Location: Newark
(54.2500°N, 9.1833°E)
Time: 01:13:19
(UTC+00:00)

S-56A Canister/Altair - Visible Passes

Search period start: 22 January 2021 00:00
Search period end: 01 February 2021 00:00
Orbit: 633 x 2499 km, 38.9° (Epoch: 21 January)

Date Brightness Start Highest point End Pass type
(mag) Time Alt. Az. Time Alt. Az. Time Alt. Az.
22 Jan 9.6 04:15:10 14° S 04:15:24 14° S 04:18:14 10° SE visible
22 Jan 9.8 06:15:13 10° SW 06:17:57 14° S 06:21:04 10° SSE visible
23 Jan 9.9 03:44:16 12° SSE 03:44:16 12° SSE 03:45:15 10° SE visible
23 Jan 9.7 05:42:57 10° SW 05:45:25 13° S 05:48:11 10° SSE visible
24 Jan 9.6 05:10:48 10° SSW 05:12:55 13° S 05:15:22 10° SSE visible
25 Jan 9.5 04:39:55 12° SSW 04:40:26 12° S 04:42:35 10° SSE visible
26 Jan 9.7 04:09:02 11° S 04:09:02 11° S 04:09:53 10° SSE visible
